Location: El Hornillo
(40.2499°N, 5.1036°W)
Time: 10:32:52
(UTC+00:00)

Cosmos 1656 - Pass Details

Date: 05 August 2024
Orbit: 796 x 850 km, 71.1° (Epoch: 14 September)

Event Time Altitude Azimuth Distance (km) Brightness Sun altitude
Exits shadow 22:10:28 62° 101° (E) 916 3.6 -24.9°
Drops below altitude 10° 22:15:49 10° 30° (NNE) 2,436 6.4 -25.5°
Sets 22:18:17 0° 27° (NNE) 3,382 7.2 -25.8°
